Station 46011 (LLNR 215) - SANTA MARIA - 21NM NW of Point Arguello, CA Image indicating link to RSS feed of recent meteorological observations for station 46011


Conditions at 46011 as of
(10:00 am PDT)
1700 GMT on 06/23/2024:
     

Click on the graph icon in the table below to see a time series plot of the last five days of that observation.

5-day plot - Wind Direction Wind Direction (WDIR): N ( 350 deg true )
5-day plot - Wind Speed Wind Speed (WSPD): 5.8 kts
5-day plot - Wind Gust Wind Gust (GST): 7.8 kts
5-day plot - Water Temperature Water Temperature (WTMP): 55.9 °F
5-day plot - Wind Speed at 10 Meters Wind Speed at 10 meters (WSPD10M): 5.8 kts
5-day plot - Wind Speed at 20 Meters Wind Speed at 20 meters (WSPD20M): 5.8 kts
5-day plot -  Wind Speed, Wind Gust and Atmospheric Pressure Combined plot of Wind Speed, Gust, and Air Pressure
Supplemental Measurements
Highest 1-minute Wind Speed
Time (PDT)5-day plot - 1-Minute Wind Speed WSPD 5-day plot - 1-Minute Wind Direction WDIR
9:52 am 5.8 kts-
Previous observations
TIME
(PDT)
5-day plot - Wind Direction
WDIR
 
5-day plot - Wind Speed
WSPD
kts
5-day plot - Wind Gust
GST
kts
5-day plot - Wave Height
WVHT
ft
5-day plot - Dominant Wave Period
DPD
sec
5-day plot - Average Wave Period
APD
sec
5-day plot - Mean Wave Direction
MWD
 
5-day plot - Atmospheric Pressure
PRES
in
5-day plot - Pressure Tendency
PTDY
in
5-day plot - Air Temperature
ATMP
°F
5-day plot - Water Temperature
WTMP
°F
5-day plot - Dew Point
DEWP
°F
5-day plot - Salinity
SAL
psu
5-day plot - Visibility
VIS
nmi
5-day plot - Tide (above MLLW)
TIDE
ft
2024-06-23 09:50 amNNW 5.8 7.8 4.3 87.0 NW--- 55.8----
2024-06-23 09:40 amNNW 5.8 7.8------- 55.8----
2024-06-23 09:30 amNNW 7.8 9.7------- 55.6----
2024-06-23 09:20 am N 5.8 7.8 3.9 86.7 NW--- 55.6----
2024-06-23 09:10 amNNW 5.8 7.8 3.9-6.7 NW--- 55.6----
2024-06-23 09:00 am N 3.9 5.8------- 55.6----
2024-06-23 08:50 am N 3.9 5.8 4.3 86.7 NW--- 55.6----
2024-06-23 08:40 am N 3.9 5.8 4.3-6.7 NW--- 55.6----
2024-06-23 08:30 am N 5.8 7.8------- 55.6----
2024-06-23 08:20 am N 3.9 5.8 3.9 176.7SSW--- 55.4----
2024-06-23 08:10 am N 3.9 5.8------- 55.4----
2024-06-23 08:00 am N 5.8 5.8------- 55.4----
2024-06-23 07:50 am N 3.9 5.8 3.9 86.6WNW--- 55.4----
2024-06-23 07:40 am N 3.9 5.8------- 55.4----
2024-06-23 07:30 am N 3.9 5.8------- 55.4----
2024-06-23 07:20 amNNW 3.9 5.8 3.9 86.7 NW--- 55.2----
2024-06-23 07:10 amNNW 3.9 5.8------- 55.2----
2024-06-23 07:00 amNNW 3.9 5.8------- 55.2----
2024-06-23 06:50 amNNW 3.9 5.8 4.3 76.4WNW--- 55.2----
2024-06-23 06:40 amNNW 3.9 5.8------- 55.2----
2024-06-23 06:30 amNNW 3.9 5.8------- 55.2----
2024-06-23 06:20 amNNW 3.9 5.8 4.3 86.7 NW--- 55.2----
2024-06-23 06:10 amNNW 3.9 5.8 4.3-6.7 NW--- 55.2----
2024-06-23 06:00 amNNW 3.9 5.8------- 55.2----
2024-06-23 05:50 amNNW 3.9 5.8 3.9 86.8 NW--- 55.2----
2024-06-23 05:40 amNNW 3.9 5.8------- 55.4----
2024-06-23 05:30 amNNW 3.9 7.8------- 55.2----
2024-06-23 05:20 amNNW 5.8 7.8 3.9 86.5 NW--- 55.2----
2024-06-23 05:10 amNNW 5.8 7.8 3.9-6.5 NW--- 55.2----
2024-06-23 05:00 amNNW 5.8 5.8------- 55.0----
2024-06-23 04:50 amNNW 5.8 7.8 4.3 86.9 NW--- 55.2----
2024-06-23 04:40 amNNW 5.8 7.8------- 55.0----
2024-06-23 04:30 am NW 5.8 7.8------- 55.0----
2024-06-23 04:20 am NW 5.8 7.8 4.3 86.9 NW--- 54.9----
2024-06-23 04:10 am NW 5.8 7.8 4.3-6.9 NW--- 54.9----
2024-06-23 04:00 am NW 5.8 7.8------- 54.9----
2024-06-23 03:50 am NW 5.8 7.8 4.3 87.1 NW--- 54.9----
2024-06-23 03:40 am NW 3.9 5.8------- 54.9----
2024-06-23 03:30 am NW 3.9 5.8------- 54.9----
2024-06-23 03:20 am NW 5.8 7.8 3.9 87.0 NW--- 54.9----
2024-06-23 03:10 am NW 5.8 7.8 3.9-7.0 NW--- 54.9----
2024-06-23 03:00 am NW 5.8 7.8------- 54.9----
2024-06-23 02:50 am NW 5.8 5.8 4.3 87.1 NW--- 54.9----
2024-06-23 02:40 am NW 3.9 7.8------- 54.9----
2024-06-23 02:30 am NW 5.8 5.8------- 54.9----
2024-06-23 02:20 am NW 3.9 5.8 4.3 97.2 NW--- 54.7----
2024-06-23 02:10 am NW 5.8 7.8 4.3-7.2 NW--- 54.7----
2024-06-23 02:00 am NW 3.9 7.8------- 54.7----
2024-06-23 01:50 am NW 3.9 5.8 3.9 86.9 NW--- 54.9----
2024-06-23 01:40 am NW 3.9 5.8 3.9-6.9 NW--- 54.9----
2024-06-23 01:30 amNNW 3.9 5.8------- 54.9----
2024-06-23 01:20 amNNW 3.9 5.8 4.3 86.9WNW--- 54.9----
2024-06-23 01:10 am NW 3.9 5.8 4.3-6.9WNW--- 54.9----
2024-06-23 01:00 amNNW 3.9 5.8------- 54.9----
2024-06-23 12:50 am N 3.9 5.8 3.9 96.9WNW--- 55.0----
2024-06-23 12:40 am N 3.9 5.8 3.9-6.9WNW--- 55.0----
2024-06-23 12:30 amNNW 3.9 5.8------- 55.0----
2024-06-23 12:20 amNNW 3.9 5.8 3.9 96.9 NW--- 55.0----
2024-06-23 12:10 am N 3.9 5.8 3.9-6.9 NW--- 55.0----
2024-06-23 12:00 am N 3.9 5.8------- 55.0----
2024-06-22 11:50 pmNNW 3.9 5.8 4.3 86.9WNW--- 55.0----
2024-06-22 11:40 pmNNW 3.9 5.8------- 55.2----
2024-06-22 11:30 pm N 3.9 5.8------- 55.2----
2024-06-22 11:20 pm N 3.9 5.8 4.3 87.0 NW--- 55.2----
2024-06-22 11:10 pm N 3.9 5.8 4.3-7.0 NW--- 55.4----
2024-06-22 11:00 pm N 5.8 7.8------- 55.6----
2024-06-22 10:50 pm N 3.9 7.8 4.3 87.0 NW--- 55.4----
2024-06-22 10:40 pm N 5.8 7.8------- 55.6----
2024-06-22 10:30 pm N 3.9 7.8------- 55.4----
2024-06-22 10:20 pm N 5.8 7.8 3.9 86.8 NW--- 55.6----
2024-06-22 10:10 pm N 3.9 5.8------- 55.6----
2024-06-22 10:00 pm NW 3.9 5.8------- 55.4----
2024-06-22 09:50 pmNNW 5.8 7.8 4.3 86.8 NW--- 55.6----
2024-06-22 09:40 pm NW 5.8 7.8 4.3-6.8 NW--- 55.6----
2024-06-22 09:30 pm NW 5.8 7.8------- 55.6----
2024-06-22 09:20 pmNNW 5.8 7.8 3.9 86.7 NW--- 55.6----
2024-06-22 09:10 pm NW 5.8 7.8 3.9-6.7 NW--- 55.8----
2024-06-22 09:00 pmWNW 5.8 7.8------- 55.8----
2024-06-22 08:50 pmWNW 5.8 7.8 3.9 86.6 NW--- 55.8----
2024-06-22 08:40 pm NW 5.8 7.8------- 55.8----
2024-06-22 08:30 pm NW 5.8 7.8------- 55.8----
2024-06-22 08:20 pmWNW 5.8 7.8 4.3 86.7 NW--- 55.8----
2024-06-22 08:10 pm NW 5.8 7.8 4.3-6.7 NW--- 55.8----
2024-06-22 08:00 pmWNW 5.8 7.8------- 55.8----
2024-06-22 07:50 pm NW 5.8 7.8 4.3 86.7 NW--- 55.8----
2024-06-22 07:40 pm NW 5.8 7.8------- 55.9----
2024-06-22 07:30 pm NW 5.8 7.8------- 55.9----
2024-06-22 07:20 pm NW 3.9 5.8 3.9 86.3 NW--- 55.8----
2024-06-22 07:10 pm NW 5.8 7.8 3.9-6.3 NW--- 55.9----
2024-06-22 07:00 pm NW 5.8 7.8------- 55.9----
2024-06-22 06:50 pmNNW 5.8 7.8 4.3 86.5 NW--- 56.1----
2024-06-22 06:40 pmNNW 5.8 7.8------- 56.1----
2024-06-22 06:30 pmNNW 5.8 7.8------- 56.1----
2024-06-22 06:20 pm NW 5.8 7.8 4.3 86.4 NW--- 56.3----
2024-06-22 06:10 pm NW 5.8 7.8------- 56.1----
2024-06-22 06:00 pm NW 5.8 9.7------- 56.1----
2024-06-22 05:50 pm NW 5.8 7.8 4.3 86.5 NW--- 56.1----
2024-06-22 05:40 pm NW 5.8 7.8------- 55.9----
2024-06-22 05:30 pm NW 5.8 9.7------- 55.6----
2024-06-22 05:20 pm NW 7.8 9.7 4.3 96.5 NW--- 55.4----
2024-06-22 05:10 pm NW 7.8 9.7------- 55.4----
2024-06-22 05:00 pm NW 7.8 9.7------- 55.6----
2024-06-22 04:50 pm NW 7.8 11.7 3.9 76.1WNW--- 55.8----
2024-06-22 04:40 pm NW 7.8 9.7------- 55.4----
2024-06-22 04:10 pm NW 9.7 11.7 4.3-6.6 NW--- 54.9----
2024-06-22 04:00 pm NW 7.8 11.7------- 54.7----
2024-06-22 03:50 pm NW 7.8 11.7 4.6 86.5 NW--- 54.7----
2024-06-22 03:40 pm NW 7.8 11.7------- 54.7----
2024-06-22 03:30 pm NW 7.8 9.7------- 54.7----
2024-06-22 03:20 pm NW 9.7 11.7 4.9 86.7 NW--- 54.9----
2024-06-22 03:10 pm NW 7.8 11.7------- 54.7----
2024-06-22 03:00 pm NW 7.8 9.7------- 54.7----
2024-06-22 02:50 pm NW 7.8 11.7 4.9 86.6 NW--- 54.7----
2024-06-22 02:40 pmWNW 7.8 11.7------- 54.7----
2024-06-22 02:30 pmWNW 7.8 11.7------- 54.7----
2024-06-22 02:20 pmWNW 9.7 11.7 4.9 86.5 NW--- 54.5----
2024-06-22 02:10 pmWNW 7.8 9.7 4.9-6.5 NW--- 54.5----
2024-06-22 02:00 pmWNW 7.8 9.7------- 54.3----
2024-06-22 01:50 pmWNW 7.8 11.7 4.9 86.3 NW--- 54.3----
2024-06-22 01:40 pmWNW 7.8 9.7------- 54.3----
2024-06-22 01:30 pmWNW 7.8 9.7------- 54.3----
2024-06-22 01:20 pmWNW 7.8 9.7 4.9 96.3 NW--- 54.1----
2024-06-22 01:10 pmWNW 5.8 7.8 4.9-6.3 NW--- 54.3----
2024-06-22 01:00 pmWNW 7.8 9.7------- 54.3----
2024-06-22 12:50 pmWNW 5.8 9.7 5.2 96.5 NW--- 54.1----
2024-06-22 12:40 pmWNW 5.8 7.8------- 54.1----
2024-06-22 12:30 pmWNW 5.8 9.7------- 54.1----
2024-06-22 12:20 pmWNW 5.8 9.7 5.2 86.2 NW--- 54.0----
2024-06-22 12:10 pmWNW 5.8 9.7 5.2-6.2 NW--- 54.1----
2024-06-22 12:00 pmWNW 5.8 7.8------- 54.0----
2024-06-22 11:50 am NW 5.8 7.8 4.9 96.1 NW--- 54.0----
2024-06-22 11:40 amWNW 5.8 7.8------- 54.0----
2024-06-22 11:30 amWNW 3.9 5.8------- 53.8----
2024-06-22 11:20 amWNW 3.9 5.8 4.9 85.9 NW--- 53.6----
2024-06-22 11:10 amWNW 3.9 5.8 4.9-5.9 NW--- 53.6----
2024-06-22 11:00 amWNW 3.9 7.8------- 53.6----
2024-06-22 10:50 amWNW 3.9 7.8 4.9 85.9 NW--- 53.6----
2024-06-22 10:40 amWNW 3.9 5.8 4.9-5.9 NW--- 53.6----
2024-06-22 10:30 am NW 5.8 7.8------- 53.6----
2024-06-22 10:20 am NW 5.8 7.8 4.9 86.1WNW--- 53.6----
2024-06-22 10:10 am NW 5.8 7.8 4.9-6.1WNW--- 53.6----
2024-06-22 10:00 am NW 5.8 7.8------- 53.4----
2024-06-22 09:50 amNNW 3.9 7.8 4.6 95.8 NW--- 53.4----

Detailed Wave Summary
for 46011 as of (9:40 am PDT)
1640 GMT on 06/23/2024:

These wave data are displayed in rounded times.

     

Click on the graph icon in the table below to see a time series plot of the last five days of that observation.

5-day plot - Significant Wave Height Significant Wave Height (WVHT): 4.3 ft
5-day plot - Swell Height Swell Height (SwH): 4.3 ft
5-day plot - Swell Period Swell Period (SwP): 8.3 sec
5-day plot - Swell Direction Swell Direction (SwD): NW
5-day plot - Wind Wave Height Wind Wave Height (WWH): 1.0 ft
5-day plot - Wind Wave Period Wind Wave Period (WWP): 4.0 sec
5-day plot - Wind Wave Direction Wind Wave Direction (WWD): W
5-day plot - Wave Steepness Wave Steepness (STEEPNESS): AVERAGE
5-day plot - Average Wave Period Average Wave Period (APD): 7.0 sec
Previous observations
TIME
(PDT)
5-day plot - Wave Height
WVHT
ft
5-day plot - Swell Height
SwH
ft
5-day plot - Swell Period
SwP
sec
5-day plot - Swell Direction
SwD
 
5-day plot - Wind Wave Height
WWH
ft
5-day plot - Wind Wave Period
WWP
sec
5-day plot - Wind Wave Direction
WWD
 
5-day plot - Wave Steepness
STEEPNESS
 
5-day plot - Average Wave Period
APD
sec
2024-06-23 09:10 am 3.9 3.9 8.3 NW 1.0 4.0 W AVERAGE 6.7
2024-06-23 08:40 am 4.3 4.3 8.3 NW 1.0 4.0 W AVERAGE 6.7
2024-06-23 08:10 am 3.9 3.6 17.4SSW 1.0 3.8 WNW SWELL 6.7
2024-06-23 07:40 am 3.9 3.9 7.7WNW 1.0 4.0 W AVERAGE 6.6
2024-06-23 07:10 am 3.9 3.9 8.3 NW 1.0 3.7 W AVERAGE 6.7
2024-06-23 06:40 am 4.3 4.3 7.1WNW 1.0 3.1 W STEEP 6.4
2024-06-23 06:10 am 4.3 3.9 8.3 NW 1.0 4.0 WNW AVERAGE 6.7
2024-06-23 05:40 am 3.9 3.9 8.3 NW 1.0 3.8 W AVERAGE 6.8
2024-06-23 05:10 am 3.9 3.6 7.7 NW 1.0 3.6 WNW AVERAGE 6.5
2024-06-23 04:40 am 4.3 3.9 8.3 NW 1.0 3.3 WNW AVERAGE 6.9
2024-06-23 04:10 am 4.3 3.9 8.3 NW 1.0 3.8 WNW AVERAGE 6.9
2024-06-23 03:40 am 4.3 4.3 8.3 NW 1.0 3.8 WNW AVERAGE 7.1
2024-06-23 03:10 am 3.9 3.9 7.7 NW 0.7 3.3 WNW AVERAGE 7.0
2024-06-23 02:40 am 4.3 4.3 8.3 NW 0.7 3.7 WNW AVERAGE 7.1
2024-06-23 02:10 am 4.3 4.3 9.1 NW 0.7 4.0 WNW SWELL 7.2
2024-06-23 01:40 am 3.9 3.6 8.3 NW 0.7 3.6 WNW AVERAGE 6.9
2024-06-23 01:10 am 4.3 3.9 7.7WNW 0.7 4.0 W AVERAGE 6.9
2024-06-23 12:40 am 3.9 3.9 9.1WNW 0.7 4.0 WNW SWELL 6.9
2024-06-23 12:10 am 3.9 3.9 9.1 NW 1.0 3.6 NW SWELL 6.9
2024-06-22 11:40 pm 4.3 3.9 8.3WNW 1.0 3.6 WNW AVERAGE 6.9
2024-06-22 11:10 pm 4.3 4.3 8.3 NW 1.0 3.8 W AVERAGE 7.0
2024-06-22 10:40 pm 4.3 4.3 8.3 NW 1.0 3.6 WNW AVERAGE 7.0
2024-06-22 10:10 pm 3.9 3.9 8.3 NW 1.0 4.0 WNW AVERAGE 6.8
2024-06-22 09:40 pm 4.3 4.3 8.3 NW 1.0 4.0 WNW AVERAGE 6.8
2024-06-22 09:10 pm 3.9 3.9 8.3 NW 1.0 3.7 WNW AVERAGE 6.7
2024-06-22 08:40 pm 3.9 3.9 8.3 NW 1.0 3.8 WNW AVERAGE 6.6
2024-06-22 08:10 pm 4.3 3.9 8.3 NW 1.0 3.6 WNW AVERAGE 6.7
2024-06-22 07:40 pm 4.3 4.3 8.3 NW 1.0 3.8 WNW AVERAGE 6.7
2024-06-22 07:10 pm 3.9 3.9 7.7 NW 1.0 4.0 W AVERAGE 6.3
2024-06-22 06:40 pm 4.3 4.3 8.3 NW 1.3 3.6 W AVERAGE 6.5
2024-06-22 06:10 pm 4.3 4.3 8.3 NW 1.0 3.6 WNW AVERAGE 6.4
2024-06-22 05:40 pm 4.3 3.9 8.3 NW 1.0 3.6 W AVERAGE 6.5
2024-06-22 05:10 pm 4.3 4.3 9.1 NW 1.0 3.4 WNW SWELL 6.5
2024-06-22 04:40 pm 3.9 3.9 7.1WNW 1.0 3.7 WNW AVERAGE 6.1
2024-06-22 04:10 pm 4.3 3.9 8.3 NW 1.3 4.2 WNW AVERAGE 6.6
2024-06-22 03:40 pm 4.6 4.6 7.7 NW 1.3 3.7 WNW AVERAGE 6.5
2024-06-22 03:10 pm 4.9 4.6 8.3 NW 1.3 4.0 W AVERAGE 6.7
2024-06-22 02:40 pm 4.9 4.9 8.3 NW 1.3 3.7 WNW AVERAGE 6.6
2024-06-22 02:10 pm 4.9 4.6 8.3 NW 1.3 3.6 WNW AVERAGE 6.5
2024-06-22 01:40 pm 4.9 4.9 8.3 NW 1.3 3.7 WNW AVERAGE 6.3
2024-06-22 01:10 pm 4.9 4.6 9.1 NW 1.3 4.0 NW AVERAGE 6.3
2024-06-22 12:40 pm 5.2 5.2 9.1 NW 1.3 3.7 WNW AVERAGE 6.5
2024-06-22 12:10 pm 5.2 4.9 8.3 NW 1.3 3.8 NW AVERAGE 6.2
2024-06-22 11:40 am 4.9 4.9 9.1 NW 1.3 3.4 WNW AVERAGE 6.1
2024-06-22 11:10 am 4.9 4.6 8.3 NW 1.6 4.0 WNW AVERAGE 5.9
2024-06-22 10:40 am 4.9 4.9 8.3 NW 1.6 3.3 WNW AVERAGE 5.9
2024-06-22 10:10 am 4.9 4.6 7.7WNW 1.3 3.7 WNW AVERAGE 6.1

Plot of wave energy versus frequency (and period)